CZ-6A DEB, 63391

Orbit data source: Space-Track

CZ-6A DEB, 63391 is space debris in LEO originally from a launch on Tue, 06 Aug 2024 UTC launched from the Taiyaun Space Center, China (TSC). Debris objects in space refer to the collection of defunct objects orbiting the Earth. Examples of debris include non-operational satellites, rocket bodies, and fragments generated from explosions, collisions, or faulty payload assembly.

Loading next visibility...
Identifier
63391, 2024-140ADN
Orbit
LEO
Country
Flag of CNCN / PRC
Related business
Manufacturer
SAST
Mission
Spacecraft
Bus & Motor
Unknown
Mass
Unknown
Launch date (UTC)
2024-08-06 (2 years ago)
Launch vehicle
Unknown
Launch site
Taiyaun Space Center, China (TSC)
Object type
Payload
Rocket body
Debris
Shape & HBR
Unknown shape, 0.1 m
Radar Cross Section
Medium (>0.1 m² and <1 m²)

Expand to show TLE details & history
Last TLE update: 1 day ago

TLE from 1 day ago
0 CZ-6A DEB
1 63391U 24140ADN 26170.54848430  .00000324  00000-0  15386-3 0  9990
2 63391  88.9752 272.8388 0061211 200.9800 158.8876 14.16186528 95785
Epoch: 2026-06-19T13:09Z
TLE epoch observation values (Epoch: 2026-06-19T13:09:49.043Z)
Latitude
-0.00002°
Longitude
167.60858°
Altitude
882.577 km
Speed
7.39 km/s
True Right ascension
18h 11m 21s
True Declination
0° 00' 00"
Sunlit
Object was in full shadow at epoch
Visualization orbit readout
Latitude
Unknown
Longitude
Unknown
Altitude
Unknown
Speed
Unknown
Apparent Right ascension
Unknown
Apparent Declination
Unknown
Sunlit
N/A
Visualization observer readout
Local Sidereal Time
07:23:47
Azimuth
Unknown
Elevation
Unknown
Doppler factor
Unknown
Orbital elements
Apogee altitude
879.389 km
Perigee altitude
791.081 km
Semi-major axis
7,213.372 km
Eccentricity
0.00612
Inclination
88.9752°
RAAN
272.8388°
Arg. of periapsis
200.98°
True anomaly
159.13846°
Mean anomaly
158.8876°
Eccentric anomaly
159.01321°
Mean motion
3.54271 °/min
Orbital period
101.62 mins
BSTAR
0.00015386
Loading maneuver chart data...
Computing Atmospheric mass density...
Loading historical data...
Loading historical data...
Loading historical data...
Loading historical data...
Loading historical data...
Loading historical data...
Loading historical data...

Documentation

Showing up to 5 results
|